Change the Weather History Date:

Saturday, November 2, 2013

  Actual Average Record
Temperature  
Mean Temperature 50 °F -  
Max Temperature 65 °F 52 °F 69 °F (1999)
Min Temperature 35 °F 33 °F 21 °F (2002)
Degree Days  
Heating Degree Days 15    
Moisture  
Dew Point 40 °F    
Average Humidity 88    
Maximum Humidity 100    
Minimum Humidity 41    
Precipitation  
Precipitation 0.00 in - - ()
Sea Level Pressure  
Sea Level Pressure 29.67 in    
Wind  
Wind Speed 4 mph (North)    
Max Wind Speed 16 mph    
Max Gust Speed 22 mph    
Visibility 4 miles    
Events Fog , Rain    
Averages and records for this station are not official NWS values.
T = Trace of Precipitation, MM = Missing Value Source: NWS Daily Summary

Daily Weather History Graph

Daily Weather History Graph

Search for Another Location

Airport or City:

Trip Planner

Search our weather history database for the weather conditions in past years. The results will help you decide how hot, cold, wet, or windy it might be!

Date:

Astronomy

Nov. 02, 2013 Rise Set
Actual Time 7:24 AM EDT 5:42 PM EDT
Civil Twilight 6:55 AM EDT 6:11 PM EDT
Nautical Twilight 6:22 AM EDT 6:44 PM EDT
Astronomical Twilight 5:49 AM EDT 7:17 PM EDT
Moon 6:17 AM EDT (11/2) 5:12 PM EDT (11/2)
Length of Visible Light 11h 15m
Length of Day
10h 17m
Waning Crescent, 1% of the Moon is Illuminated
Nov 2
Waning Crescent
Nov 3
New
Nov 10
First Quarter
Nov 17
Full
Nov 25
Last Quarter

Hourly Weather History & Observations

Time (EDT) Temp. Windchill Dew Point Humidity Pressure Visibility Wind Dir Wind Speed Gust Speed Precip Events Conditions
12:00 AM 53.6 °F - 44.6 °F 72% 29.67 in 2.5 mi WNW 9.2 mph - N/A   Haze
12:01 AM 53.6 °F - 44.6 °F 72% 29.67 in 2.0 mi WNW 8.1 mph - N/A   Haze
12:03 AM 53.6 °F - 44.6 °F 72% 29.67 in 1.8 mi WNW 9.2 mph - N/A   Haze
12:08 AM 53.6 °F - 44.6 °F 72% 29.67 in 2.0 mi NW 8.1 mph - N/A   Haze
12:10 AM 53.6 °F - 44.6 °F 72% 29.67 in 2.5 mi NW 6.9 mph - N/A   Haze
12:12 AM 51.8 °F - 44.6 °F 76% 29.68 in 3.0 mi NNW 5.8 mph - N/A   Haze
12:58 AM 49.6 °F - 42.8 °F 77% 29.70 in 10.0 mi Calm Calm - N/A   Clear
1:58 AM 43.5 °F - 43.0 °F 98% 29.67 in 10.0 mi East 2.3 mph - N/A   Clear
2:58 AM 41.0 °F 39.0 °F 40.5 °F 98% 29.68 in 10.0 mi SSE 3.5 mph - N/A   Clear
3:35 AM 39.2 °F - 37.4 °F 93% 29.66 in 2.5 mi Calm Calm - N/A   Clear
3:36 AM 39.2 °F - 37.4 °F 93% 29.66 in 2.0 mi Calm Calm - N/A   Clear
3:37 AM 39.2 °F - 37.4 °F 93% 29.66 in 1.8 mi Calm Calm - N/A   Clear
3:39 AM 39.2 °F - 37.4 °F 93% 29.65 in 1.5 mi Calm Calm - N/A   Clear
3:43 AM 37.4 °F - 37.4 °F 100% 29.65 in 1.8 mi Calm Calm - N/A   Clear
3:44 AM 37.4 °F - 37.4 °F 100% 29.65 in 2.5 mi North 1.2 mph - N/A   Clear
3:48 AM 37.4 °F - 37.4 °F 100% 29.64 in 2.0 mi NE 2.3 mph - N/A   Clear
3:49 AM 37.4 °F - 37.4 °F 100% 29.64 in 1.8 mi ENE 2.3 mph - N/A   Clear
3:50 AM 37.4 °F - 37.4 °F 100% 29.64 in 1.2 mi ENE 2.3 mph - N/A   Clear
3:51 AM 37.4 °F - 37.4 °F 100% 29.65 in 1.0 mi ENE 2.3 mph - N/A   Clear
3:52 AM 37.4 °F - 37.4 °F 100% 29.65 in 1.0 mi ENE 2.3 mph - N/A   Clear
3:53 AM 37.4 °F - 37.4 °F 100% 29.65 in 1.0 mi ENE 2.3 mph - N/A   Clear
3:54 AM 37.4 °F - 37.4 °F 100% 29.65 in 0.8 mi ENE 2.3 mph - N/A   Clear
3:58 AM 39.2 °F - 39.2 °F 100% 29.67 in 0.8 mi North - - N/A   Clear
4:00 AM 39.2 °F - 39.2 °F 100% 29.65 in 1.0 mi Calm Calm - N/A   Clear
4:04 AM 39.2 °F - 39.2 °F 100% 29.65 in 1.0 mi South 2.3 mph - N/A   Clear
4:06 AM 39.2 °F - 37.4 °F 93% 29.65 in 1.2 mi SSE 2.3 mph - N/A   Clear
4:07 AM 39.2 °F - 37.4 °F 93% 29.65 in 1.2 mi SSE 2.3 mph - N/A   Clear
4:09 AM 37.4 °F - 37.4 °F 100% 29.65 in 1.5 mi Calm Calm - N/A   Clear
4:10 AM 37.4 °F - 37.4 °F 100% 29.65 in 1.5 mi Calm Calm - N/A   Clear
4:11 AM 37.4 °F - 37.4 °F 100% 29.65 in 2.0 mi Calm Calm - N/A   Clear
4:12 AM 37.4 °F - 37.4 °F 100% 29.65 in 2.5 mi Calm Calm - N/A   Clear
4:13 AM 39.2 °F - 37.4 °F 93% 29.65 in 3.0 mi Calm Calm - N/A   Clear
4:32 AM 37.4 °F - 37.4 °F 100% 29.66 in 2.5 mi Calm Calm - N/A   Clear
4:35 AM 37.4 °F - 37.4 °F 100% 29.66 in 2.0 mi Calm Calm - N/A   Clear
4:36 AM 37.4 °F - 37.4 °F 100% 29.66 in 1.8 mi Calm Calm - N/A   Clear
4:40 AM 37.4 °F - 37.4 °F 100% 29.65 in 2.0 mi Calm Calm - N/A   Clear
4:41 AM 37.4 °F - 37.4 °F 100% 29.65 in 2.5 mi Calm Calm - N/A   Clear
4:43 AM 37.4 °F - 37.4 °F 100% 29.65 in 1.8 mi Calm Calm - N/A   Clear
4:44 AM 37.4 °F - 37.4 °F 100% 29.65 in 1.5 mi Variable 1.2 mph - N/A   Clear
4:45 AM 37.4 °F - 37.4 °F 100% 29.65 in 1.2 mi North 2.3 mph - N/A   Clear
4:46 AM 37.4 °F - 37.4 °F 100% 29.65 in 1.0 mi North 2.3 mph - N/A   Clear
4:47 AM 37.4 °F - 37.4 °F 100% 29.65 in 1.0 mi North 2.3 mph - N/A   Clear
4:48 AM 37.4 °F - 37.4 °F 100% 29.65 in 1.0 mi NNE 2.3 mph - N/A   Clear
4:49 AM 37.4 °F - 35.6 °F 93% 29.66 in 0.8 mi NNE 2.3 mph - N/A   Clear
4:50 AM 37.4 °F - 35.6 °F 93% 29.66 in 0.8 mi NNE 2.3 mph - N/A   Clear
4:51 AM 37.4 °F - 35.6 °F 93% 29.66 in 0.5 mi NE 2.3 mph - N/A Fog Fog
4:57 AM 37.4 °F - 35.6 °F 93% 29.66 in 0.5 mi NE 1.2 mph - N/A Fog Fog
4:58 AM 37.4 °F - 37.4 °F 100% 29.68 in 0.5 mi NE 1.2 mph - N/A Fog Fog
5:03 AM 37.4 °F - 37.4 °F 100% 29.66 in 0.5 mi Calm Calm - N/A Fog Fog
5:08 AM 37.4 °F - 37.4 °F 100% 29.67 in 0.8 mi Calm Calm - N/A   Clear
5:15 AM 37.4 °F - 37.4 °F 100% 29.67 in 0.8 mi Calm Calm - N/A   Partly Cloudy
5:16 AM 37.4 °F - 37.4 °F 100% 29.67 in 1.0 mi Calm Calm - N/A   Partly Cloudy
5:17 AM 37.4 °F - 37.4 °F 100% 29.67 in 1.0 mi Calm Calm - N/A   Partly Cloudy
5:18 AM 37.4 °F - 37.4 °F 100% 29.67 in 1.2 mi Calm Calm - N/A   Partly Cloudy
5:21 AM 37.4 °F - 37.4 °F 100% 29.67 in 1.0 mi Calm Calm - N/A   Scattered Clouds
5:24 AM 37.4 °F - 37.4 °F 100% 29.67 in 1.2 mi East 1.2 mph - N/A   Scattered Clouds
5:29 AM 37.4 °F - 37.4 °F 100% 29.67 in 1.2 mi Calm Calm - N/A   Mostly Cloudy
5:30 AM 37.4 °F - 35.6 °F 93% 29.67 in 1.8 mi Calm Calm - N/A   Mostly Cloudy
5:31 AM 35.6 °F - 35.6 °F 100% 29.67 in 2.5 mi Calm Calm - N/A   Mostly Cloudy
5:32 AM 35.6 °F - 35.6 °F 100% 29.67 in 4.0 mi Calm Calm - N/A   Mostly Cloudy
5:54 AM 37.4 °F - 35.6 °F 93% 29.67 in 2.5 mi NNE 1.2 mph - N/A   Mostly Cloudy
5:55 AM 37.4 °F - 37.4 °F 100% 29.67 in 2.0 mi NNE 2.3 mph - N/A   Mostly Cloudy
5:58 AM 36.9 °F - 36.5 °F 99% 29.70 in 2.0 mi NNE 2.3 mph - N/A   Mostly Cloudy
6:02 AM 37.4 °F - 37.4 °F 100% 29.68 in 3.0 mi NE 1.2 mph - N/A   Mostly Cloudy
6:58 AM 38.3 °F - 38.1 °F 99% 29.69 in 10.0 mi NNE 1.2 mph - N/A   Overcast
7:58 AM 38.5 °F - 38.3 °F 99% 29.70 in 3.0 mi NNE 1.2 mph - N/A   Partly Cloudy
8:58 AM 45.5 °F - 45.1 °F 99% 29.71 in 10.0 mi Calm Calm - N/A   Mostly Cloudy
9:58 AM 50.0 °F - 46.4 °F 87% 29.70 in 10.0 mi Calm Calm - N/A   Mostly Cloudy
10:58 AM 55.9 °F - 43.3 °F 63% 29.68 in 10.0 mi Variable 2.3 mph - N/A   Clear
11:58 AM 59.9 °F - 41.7 °F 51% 29.68 in 10.0 mi SSW 2.3 mph - N/A   Clear
12:58 PM 63.7 °F - 41.9 °F 45% 29.64 in 10.0 mi Variable 4.6 mph - N/A   Clear
1:58 PM 64.6 °F - 40.6 °F 42% 29.64 in 10.0 mi South 5.8 mph - N/A   Clear
2:58 PM 65.5 °F - 41.0 °F 41% 29.62 in 10.0 mi South 9.2 mph - N/A   Clear
3:58 PM 64.0 °F - 42.4 °F 45% 29.62 in 10.0 mi South 9.2 mph - N/A   Mostly Cloudy
4:58 PM 61.7 °F - 42.8 °F 50% 29.62 in 10.0 mi South 5.8 mph - N/A   Mostly Cloudy
5:58 PM 61.0 °F - 42.8 °F 51% 29.63 in 10.0 mi West 6.9 mph - N/A   Overcast
6:58 PM 60.1 °F - 44.6 °F 57% 29.68 in 10.0 mi NW 16.1 mph 21.9 mph N/A   Mostly Cloudy
7:03 PM 59.0 °F - 46.4 °F 63% 29.67 in 10.0 mi NW 12.7 mph - N/A   Light Drizzle
7:04 PM 59.0 °F - 46.4 °F 63% 29.67 in 10.0 mi NW 12.7 mph - N/A   Light Drizzle
7:22 PM 57.2 °F - 46.4 °F 67% 29.68 in 10.0 mi NNW 8.1 mph - N/A   Overcast
7:38 PM 55.4 °F - 46.4 °F 72% 29.69 in 10.0 mi NW 6.9 mph - N/A Rain Light Rain
7:47 PM 55.4 °F - 46.4 °F 72% 29.69 in 10.0 mi NW 5.8 mph - N/A   Mostly Cloudy
7:58 PM 55.6 °F - 46.9 °F 73% 29.72 in 10.0 mi NW 3.5 mph - 0.00 in   Mostly Cloudy
7:59 PM 55.4 °F - 46.4 °F 72% 29.70 in 10.0 mi NW 4.6 mph - N/A Rain Light Rain
8:08 PM 55.4 °F - 48.2 °F 77% 29.70 in 10.0 mi NNW 3.5 mph - N/A   Mostly Cloudy
8:58 PM 51.4 °F - 46.9 °F 85% 29.72 in 10.0 mi NW 4.6 mph - N/A   Mostly Cloudy
9:58 PM 48.6 °F - 45.5 °F 89% 29.75 in 10.0 mi NNW 3.5 mph - N/A   Mostly Cloudy
10:58 PM 48.6 °F - 45.5 °F 89% 29.75 in 10.0 mi Calm Calm - N/A   Overcast